Location: *
(46.1866°S, 178.5290°W)
Time: 05:36:51
(UTC+00:00)

CZ-4B R/B - Pass Details

Date: 22 September 2021
Orbit: 809 x 881 km, 99.1° (Epoch: 17 October)

Event Time Altitude Azimuth Distance (km) Brightness Sun altitude
Rises 06:34:19 0° 161° (SSE) 3,379 6.2 -8.3°
Reaches altitude 10° 06:36:45 10° 156° (SSE) 2,435 5.5 -8.7°
Maximum altitude 06:41:59 51° 80° (E) 1,026 3.3 -9.6°
Drops below altitude 10° 06:47:09 10° 4° (N) 2,406 5.4 -10.5°
Sets 06:49:33 0° 358° (N) 3,334 6.2 -10.9°
